Location: Krasnoyarskiy Pitomnik
(51.1333°N, 71.6167°E)
Time: 22:45:17
(UTC+00:00)

A-11 Canister half - Pass Details

Date: 26 April 2024
Orbit: 1525 x 1683 km, 47.3° (Epoch: 19 May)

Event Time Altitude Azimuth Distance (km) Brightness Sun altitude
Rises 02:34:15 0° 265° (W) 4,890 11.1 23.5°
Reaches altitude 10° 02:37:23 10° 264° (W) 3,917 10.7 24.0°
Maximum altitude 02:47:25 72° 183° (S) 1,751 9.8 25.6°
Drops below altitude 10° 02:57:31 10° 101° (ESE) 3,940 13.0 27.1°
Sets 03:00:40 0° 100° (E) 4,919 12.9 27.6°
